Gage, OK

12:44 AM CDT on May 30, 2017 (GMT -0500)
Gage

Weather History for KGAG - December, 2012

Change the Weather History Date:

Thursday, December 13, 2012

  Actual Average Record
Temperature  
Mean Temperature 50 °F -  
Max Temperature 66 °F 48 °F 75 °F (1948)
Min Temperature 34 °F 23 °F -5 °F (1958)
Degree Days  
Heating Degree Days 15    
Moisture  
Dew Point 19 °F    
Average Humidity 34    
Maximum Humidity 50    
Minimum Humidity 13    
Precipitation  
Precipitation 0.00 in - - ()
Sea Level Pressure  
Sea Level Pressure 30.01 in    
Wind  
Wind Speed 18 mph (South)    
Max Wind Speed 23 mph    
Max Gust Speed 30 mph    
Visibility 10 miles    
Events      
Averages and records for this station are not official NWS values.
T = Trace of Precipitation, MM = Missing Value Source: NWS Daily Summary

Daily Weather History Graph

Daily Weather History Graph

Search for Another Location

Airport or City:

Trip Planner

Search our weather history database for the weather conditions in past years. The results will help you decide how hot, cold, wet, or windy it might be!

Date:

Astronomy

Dec. 13, 2012 Rise Set
Actual Time 7:42 AM CST 5:25 PM CST
Civil Twilight 7:13 AM CST 5:53 PM CST
Nautical Twilight 6:41 AM CST 6:25 PM CST
Astronomical Twilight 6:09 AM CST 6:57 PM CST
Moon 7:52 AM CST (12/13) 6:08 PM CST (12/13)
Length of Visible Light 10h 40m
Length of Day
9h 42m
New Moon, 0% of the Moon is Illuminated
Dec 13
New Moon
Dec 19
First Quarter
Dec 28
Full
Jan 4
Last Quarter
Jan 11
New

Hourly Weather History & Observations

Time (CST) Temp. Windchill Dew Point Humidity Pressure Visibility Wind Dir Wind Speed Gust Speed Precip Events Conditions
12:53 AM 41.0 °F 31.4 °F 18.0 °F 40% 30.01 in 10.0 mi South 21.9 mph - N/A   Clear
1:53 AM 39.0 °F 29.6 °F 18.0 °F 43% 30.01 in 10.0 mi South 18.4 mph - N/A   Clear
2:53 AM 37.0 °F 27.0 °F 17.1 °F 44% 30.01 in 10.0 mi South 18.4 mph - N/A   Clear
3:53 AM 36.0 °F 25.6 °F 17.1 °F 46% 30.00 in 10.0 mi South 18.4 mph - N/A   Clear
4:53 AM 34.0 °F 23.8 °F 17.1 °F 50% 30.00 in 10.0 mi South 16.1 mph - N/A   Clear
5:53 AM 35.1 °F 25.2 °F 17.1 °F 48% 30.02 in 10.0 mi South 16.1 mph - N/A   Clear
6:53 AM 36.0 °F 26.0 °F 17.1 °F 46% 30.03 in 10.0 mi South 17.3 mph - N/A   Clear
7:53 AM 35.1 °F 24.8 °F 17.1 °F 48% 30.04 in 10.0 mi South 17.3 mph - N/A   Clear
8:53 AM 39.0 °F 29.3 °F 17.1 °F 41% 30.06 in 10.0 mi SSW 19.6 mph - N/A   Clear
9:53 AM 46.9 °F - 16.0 °F 29% 30.06 in 10.0 mi SSW 15.0 mph - N/A   Clear
10:53 AM 53.1 °F - 16.0 °F 23% 30.06 in 10.0 mi SSW 16.1 mph - N/A   Clear
11:53 AM 57.9 °F - 16.0 °F 19% 30.04 in 10.0 mi SSW 13.8 mph - N/A   Clear
12:53 PM 64.0 °F - 14.0 °F 14% 30.00 in 10.0 mi SSW 15.0 mph - N/A   Clear
1:53 PM 66.0 °F - 14.0 °F 13% 29.97 in 10.0 mi South 15.0 mph - N/A   Clear
2:53 PM 66.9 °F - 14.0 °F 13% 29.96 in 10.0 mi South 15.0 mph - N/A   Clear
3:53 PM 66.9 °F - 16.0 °F 14% 29.96 in 10.0 mi South 15.0 mph - N/A   Clear
4:53 PM 62.6 °F - 17.6 °F 18% 29.97 in 10.0 mi South 13.8 mph - N/A   Clear
6:53 PM 50.0 °F - 21.9 °F 33% 30.00 in 10.0 mi SSE 16.1 mph - N/A   Clear
7:53 PM 50.0 °F - 24.1 °F 36% 30.01 in 10.0 mi South 18.4 mph - N/A   Clear
8:53 PM 48.9 °F - 25.0 °F 39% 30.02 in 10.0 mi South 21.9 mph - N/A   Clear
9:53 PM 50.0 °F - 26.1 °F 39% 30.01 in 10.0 mi South 20.7 mph 25.3 mph N/A   Clear
10:53 PM 50.0 °F - 28.0 °F 43% 29.99 in 10.0 mi South 23.0 mph 29.9 mph N/A   Clear
11:53 PM 48.2 °F - 30.2 °F 50% 30.00 in 10.0 mi South 21.9 mph - N/A   Clear